Location: Acequia del Cap
(41.7000°N, 0.6167°E)
Time: 01:24:30
(UTC+00:00)

MOZ.5/SAFIR/RUBIN 5/SL-8 - Pass Details

Date: 07 August 2020
Orbit: 677 x 706 km, 98.1° (Epoch: 22 September)

Event Time Altitude Azimuth Distance (km) Brightness Sun altitude
Exits shadow 01:36:57 52° 331° (NNW) 872 4.4 -28.1°
Drops below altitude 10° 01:40:37 10° 344° (NNW) 2,177 6.9 -27.8°
Sets 01:42:52 0° 346° (NNW) 3,095 7.8 -27.6°
